Flag Weather past 2 weeks in Gandhinagar, Gujarat, India

Now
91 °F

Clear.


Feels Like: 93 °F
Forecast: 66 / 92 °F
Wind: 3 mph from Northwest

Location: Ahmadabad Airport

Current Time: Nov 29, 2014 at 3:56:23 PM

Latest Report: Nov 29, 2014 at 3:10 PM


Visibility: 4 mi

Pressure: 29.86 "Hg

Humidity: 41%

Dew point: 64 °F

Location of GandhinagarLocation

Historic Weather in Gandhinagar — Graph

°F

Gandhinagar temperature yesterday

Maximum temperature yesterday: 91 °F (at 1:40 PM)
Minimum temperature yesterday: 61 °F (at 6:10 AM)
Average temperature yesterday: 74 °F

Past Weeks' High & Low Weather Summary

 TemperatureHumidityPressure
High97 °F (Nov 14, 2:40 PM)89% (Nov 16, 5:40 AM)30.04 "Hg (Nov 16, 5:40 AM)
Low61 °F (Nov 23, 6:10 AM)23% (Nov 20, 12:40 PM)29.77 "Hg (Nov 26, 3:40 PM)
Average78 °F58%29.91 "Hg
* Reported Nov 14 2:40 PM — Nov 29 2:40 PM, Gandhinagar, Weather by CustomWeather, © 2014

Note: Actual official high and low records may vary slightly from our data, if they occured in-between our weather recording intervals... More about our weather records

Advertising

Gandhinagar weather history for previous 24 hours

 ConditionsComfort  
Time TempWeatherWind HumidityBarometerVisibility
2:40 PM
Nov 29
91 °FClear.2 mph44%29.86 "Hg4 mi
2:10 PM90 °FClear.3 mph46%29.86 "Hg4 mi
1:40 PM90 °FClear.5 mph43%29.89 "Hg3 mi
1:10 PM90 °FClear.3 mph43%29.89 "Hg3 mi
11:40 AM86 °FClear.3 mph49%29.95 "Hg2 mi
10:40 AM81 °FClear.2 mph51%29.98 "Hg1 mi
10:10 AM81 °FHaze.2 mph51%29.98 "Hg1 mi
9:40 AM77 °FHaze.2 mph54%29.98 "Hg1 mi
8:40 AM70 °FHaze.2 mph64%29.98 "Hg1 mi
6:40 AM61 °FHaze.2 mph83%29.92 "Hg2 mi
5:40 AM61 °FHaze.3 mph83%29.92 "Hg2 mi
5:10 AM63 °FHaze.3 mph77%29.89 "Hg2 mi
4:40 AM63 °FHaze.3 mph77%29.89 "Hg2 mi
4:10 AM63 °FHaze.3 mph83%29.89 "Hg2 mi
3:40 AM63 °FHaze.3 mph83%29.89 "Hg2 mi
2:40 AM64 °FHaze.3 mph83%29.89 "Hg2 mi
2:10 AM64 °FHaze.No wind83%29.89 "Hg2 mi
1:40 AM64 °FHaze.No wind88%29.89 "Hg2 mi
12:40 AM66 °FHaze.No wind88%29.89 "Hg2 mi
12:10 AM68 °FHaze.No wind78%29.92 "Hg2 mi
11:40 PM
Nov 28
68 °FHaze.No wind78%29.92 "Hg2 mi
11:10 PM70 °FHaze.No wind73%29.92 "Hg2 mi
10:40 PM70 °FHaze.No wind69%29.92 "Hg2 mi
10:10 PM72 °FHaze.No wind69%29.92 "Hg2 mi
9:40 PM72 °FHaze.No wind73%29.92 "Hg2 mi
9:10 PM72 °FHaze.No wind69%29.92 "Hg2 mi
8:40 PM73 °FClear.No wind61%29.92 "Hg2 mi
8:10 PM75 °FClear.No wind57%29.89 "Hg2 mi
7:40 PM75 °FClear.No wind61%29.89 "Hg2 mi
7:10 PM77 °FClear.2 mph54%29.86 "Hg2 mi
6:10 PM82 °FClear.No wind51%29.86 "Hg2 mi
5:40 PM86 °FClear.2 mph46%29.83 "Hg2 mi
4:40 PM90 °FClear.3 mph38%29.83 "Hg4 mi
4:10 PM91 °FClear.3 mph34%29.83 "Hg4 mi
3:40 PM91 °FClear.3 mph32%29.83 "Hg4 mi
3:10 PM91 °FClear.5 mph34%29.83 "Hg4 mi
Weather by CustomWeather, © 2014

See weather overviewHow to use our weather pages